This demonstration page uses our WeatherBlox Daily Observations layout. Learn more.

Left ArrowRight Arrow

39.12711, -84.51439

Hourly Observations for August 21, 2016

Temp ( °F °C ) Dew Point ( °F °C ) Humidity (%) Winds ( mph kmh ) Pressure ( in mb ) Visibility ( mi km ) Precip ( " mm )
12:44 am 00:44 Mostly Cloudy 72 22 72 22 100 100 S 3 6 29.77 1008 10 16 N/A
12:53 am 00:53 Mostly Cloudy 71 21.7 71 21.7 100 100 N N/A 29.77 1008 10 16 N/A
1:20 am 01:20 Cloudy with Light Rain 72 22 72 22 100 100 SW 5 7 29.80 1009 5 8 N/A
1:53 am 01:53 Cloudy 72 22.2 71 21.7 97 97 WSW 6 9 29.78 1008 10 16 0.02 0.51
2:53 am 02:53 Partly Cloudy 71 21.7 71 21.7 100 100 SW 3 6 29.77 1008 10 16 N/A
3:16 am 03:16 Mostly Cloudy 72 22 72 22 100 100 SW 6 9 29.80 1009 10 16 N/A
3:53 am 03:53 Cloudy 72 22.2 71 21.7 97 97 SW 6 9 29.78 1009 10 16 N/A
4:20 am 04:20 Partly Cloudy 72 22 72 22 100 100 VRB 7 11 29.80 1009 10 16 N/A
4:33 am 04:33 Mostly Cloudy 72 22.2 70 21.1 94 94 W 9 15 29.80 1009 10 16 N/A
4:53 am 04:53 Mostly Cloudy 72 22.2 69 20.6 91 91 WNW 9 15 29.79 1009 10 16 N/A
5:53 am 05:53 Cloudy 70 21.1 67 19.4 90 90 NW 5 7 29.81 1010 10 16 N/A
6:53 am 06:53 Cloudy 70 21.1 66 18.9 87 87 NW 8 13 29.84 1010 10 16 N/A
7:53 am 07:53 Mostly Cloudy 70 21.1 66 18.9 87 87 VRB 3 6 29.87 1012 10 16 N/A
8:53 am 08:53 Sunny 69 20.6 66 18.9 90 90 WNW 7 11 29.89 1012 10 16 N/A
9:53 am 09:53 Sunny 72 22.2 64 17.8 76 76 NW 6 9 29.91 1013 10 16 N/A
10:53 am 10:53 Sunny 74 23.3 63 17.2 69 69 WNW 10 17 29.92 1013 10 16 N/A
11:53 am 11:53 Partly Cloudy 76 24.4 63 17.2 64 64 W 9 15 29.93 1013 10 16 N/A
12:53 pm 12:53 Mostly Sunny 78 25.6 60 15.6 54 54 W 14 22 29.93 1014 10 16 N/A
1:53 pm 13:53 Mostly Cloudy 79 26.1 61 16.1 54 54 W 12 19 29.93 1014 10 16 N/A
2:53 pm 14:53 Partly Cloudy 78 25.6 59 15 52 52 W 12 19 29.93 1014 10 16 N/A
3:53 pm 15:53 Partly Cloudy 79 26.1 60 15.6 52 52 WNW 8 13 29.93 1014 10 16 N/A
4:53 pm 16:53 Mostly Cloudy 78 25.6 59 15 52 52 W 15 24 29.94 1014 10 16 N/A
5:53 pm 17:53 Mostly Cloudy 79 26.1 58 14.4 49 49 W 13 20 29.95 1014 10 16 N/A
6:53 pm 18:53 Partly Cloudy 77 25 56 13.3 48 48 VRB 7 11 29.96 1015 10 16 N/A
7:53 pm 19:53 Mostly Sunny 75 23.9 58 14.4 55 55 WNW 7 11 29.98 1015 10 16 N/A
8:53 pm 20:53 Mostly Clear 72 22.2 59 15 64 64 W 3 6 30.00 1016 10 16 N/A
9:53 pm 21:53 Mostly Clear 72 22.2 58 14.4 61 61 NW 5 7 30.03 1017 10 16 N/A
10:53 pm 22:53 Clear 63 17.2 62 16.7 97 97 N N/A 30.06 1018 10 16 N/A
11:53 pm 23:53 Clear 63 17.2 62 16.7 97 97 N N/A 30.07 1018 10 16 N/A

Powered by AerisWeather